Location: Newark
(45.4041°N, 17.9426°E)
Time: 04:55:57
(UTC+00:00)

Envisat - Visible Passes

Search period start: 23 September 2019 00:00
Search period end: 03 October 2019 00:00
Orbit: 764 x 766 km, 98.1° (Epoch: 22 September)

Date Brightness Start Highest point End Pass type
(mag) Time Alt. Az. Time Alt. Az. Time Alt. Az.
23 Sep 4.6 17:33:29 10° SSW 17:38:13 39° W 17:42:58 10° NNW visible
24 Sep 6.4 18:40:14 10° W 18:41:08 10° W 18:42:03 10° WNW visible
25 Sep 5.5 17:59:55 10° SW 18:03:54 23° W 18:07:56 10° NW visible
26 Sep 4.1 17:22:00 10° S 17:26:54 48° W 17:31:50 10° NNW visible
27 Sep 6.1 18:27:14 10° WSW 18:29:43 13° W 18:32:12 10° WNW visible
28 Sep 5.1 17:48:11 10° SSW 17:52:33 29° W 17:56:57 10° NW visible
29 Sep 3.7 17:10:35 10° S 17:15:36 61° W 17:20:39 10° NNW visible
30 Sep 5.9 18:15:03 10° SW 18:18:19 17° W 18:21:37 10° NW visible
01 Oct 4.7 17:36:35 10° SSW 17:41:13 36° W 17:45:53 10° NNW visible
02 Oct 3.3 16:59:15 10° S 17:04:19 76° WSW 17:09:26 10° NNW visible
